| time (UTC) | temp C | wind direction | speed KPH | gust KPH | rain 1hr cm | rain 24hr cm | rain mn cm | humidity % | barometer mb |
| 20260503185003 | 22 | 287 | 1.6 | 6.4 | 0.00 | 0.00 | 0.00 | 36 | 1019.1 |
| 20260503184512 | 22 | 282 | 1.6 | 6.4 | 0.00 | 0.00 | 0.00 | 34 | 1019.2 |
| 20260503184006 | 21 | 302 | 1.6 | 6.4 | 0.00 | 0.00 | 0.00 | 38 | 1019.2 |
| 20260503183510 | 21 | 113 | 3.2 | 6.4 | 0.00 | 0.00 | 0.00 | 35 | 1019.2 |
| 20260503183023 | 21 | 321 | 1.6 | 9.7 | 0.00 | 0.00 | 0.00 | 37 | 1019.4 |
| 20260503182507 | 21 | 284 | 1.6 | 9.7 | 0.00 | 0.00 | 0.00 | 37 | 1019.5 |
| 20260503182006 | 21 | 301 | 3.2 | 11.3 | 0.00 | 0.00 | 0.00 | 39 | 1019.5 |
| 20260503181528 | 21 | 293 | 4.8 | 11.3 | 0.00 | 0.00 | 0.00 | 34 | 1019.6 |
| 20260503181008 | 21 | 96 | 3.2 | 11.3 | 0.00 | 0.00 | 0.00 | 34 | 1019.6 |
| 20260503180508 | 21 | 154 | 1.6 | 4.8 | 0.00 | 0.00 | 0.00 | 37 | 1019.7 |
| 20260503180020 | 21 | 221 | 1.6 | 6.4 | 0.00 | 0.00 | 0.00 | 39 | 1019.7 |
| 20260503175504 | 21 | 288 | 3.2 | 9.7 | 0.00 | 0.00 | 0.00 | 37 | 1019.9 |
| 20260503175004 | 21 | 233 | 0.0 | 9.7 | 0.00 | 0.00 | 0.00 | 37 | 1019.8 |
| 20260503174504 | 21 | 182 | 1.6 | 11.3 | 0.00 | 0.00 | 0.00 | 38 | 1019.8 |
| 20260503174003 | 21 | 85 | 1.6 | 11.3 | 0.00 | 0.00 | 0.00 | 37 | 1019.9 |
| 20260503173502 | 21 | 300 | 1.6 | 8.0 | 0.00 | 0.00 | 0.00 | 36 | 1020.0 |
| 20260503173035 | 21 | 72 | 1.6 | 8.0 | 0.00 | 0.00 | 0.00 | 39 | 1019.9 |
| 20260503172506 | 21 | 313 | 1.6 | 9.7 | 0.00 | 0.00 | 0.00 | 39 | 1020.0 |
| 20260503172006 | 20 | 129 | 3.2 | 9.7 | 0.00 | 0.00 | 0.00 | 38 | 1020.1 |
| 20260503171502 | 21 | 286 | 3.2 | 11.3 | 0.00 | 0.00 | 0.00 | 39 | 1020.1 |
| 20260503171001 | 21 | 282 | 4.8 | 11.3 | 0.00 | 0.00 | 0.00 | 37 | 1020.2 |
| 20260503170500 | 20 | 58 | 3.2 | 9.7 | 0.00 | 0.03 | 0.00 | 41 | 1020.2 |
| 20260503151000 | 18 | 294 | 1.6 | 4.8 | 0.00 | 0.10 | 0.00 | 47 | 1021.1 |
| 20260503150502 | 18 | 72 | 0.0 | 3.2 | 0.00 | 0.13 | 0.00 | 44 | 1021.1 |
| 20260503131002 | 11 | 81 | 0.0 | 9.7 | 0.00 | 0.41 | 0.00 | 71 | 1020.6 |
| 20260503130500 | 11 | 51 | 1.6 | 4.8 | 0.00 | 0.43 | 0.00 | 71 | 1020.6 |
| 20260503110502 | 6 | 290 | 0.0 | 0.0 | 0.00 | 0.64 | 0.00 | 96 | 1019.5 |
| 20260503090502 | 7 | 290 | 0.0 | 0.0 | 0.00 | 0.89 | 0.00 | 96 | 1017.9 |
| 20260503081505 | 7 | 290 | 0.0 | 0.0 | 0.00 | 1.02 | 0.00 | 95 | 1017.6 |
| 20260503081002 | 8 | 290 | 0.0 | 0.0 | 0.00 | 1.04 | 0.00 | 95 | 1017.5 |
| 20260503080502 | 8 | 290 | 0.0 | 0.0 | 0.00 | 1.04 | 0.00 | 95 | 1017.5 |
| 20260503072501 | 8 | 290 | 0.0 | 0.0 | 0.00 | 1.09 | 0.00 | 95 | 1017.2 |
| 20260503072003 | 8 | 290 | 0.0 | 0.0 | 0.00 | 1.09 | 0.00 | 95 | 1017.2 |
| 20260503071502 | 8 | 290 | 0.0 | 0.0 | 0.00 | 1.09 | 0.00 | 95 | 1017.1 |
| 20260503071002 | 8 | 290 | 0.0 | 0.0 | 0.00 | 1.09 | 0.00 | 95 | 1017.1 |
| 20260503070502 | 8 | 290 | 0.0 | 0.0 | 0.00 | 1.09 | 0.00 | 94 | 1017.1 |
| 20260503053502 | 9 | 290 | 0.0 | 0.0 | 0.00 | 1.09 | 0.00 | 92 | 1016.4 |
| 20260503053002 | 10 | 290 | 0.0 | 0.0 | 0.00 | 1.09 | 0.00 | 93 | 1016.4 |
| 20260503052502 | 10 | 290 | 0.0 | 0.0 | 0.00 | 1.09 | 0.00 | 93 | 1016.4 |
| 20260503052001 | 10 | 290 | 0.0 | 0.0 | 0.00 | 1.09 | 0.00 | 93 | 1016.3 |
| 20260503051503 | 10 | 290 | 0.0 | 0.0 | 0.00 | 1.09 | 0.00 | 93 | 1016.4 |
| 20260503051003 | 10 | 290 | 0.0 | 0.0 | 0.00 | 1.09 | 0.00 | 92 | 1016.4 |
| 20260503044502 | 10 | 290 | 0.0 | 0.0 | 0.00 | 1.09 | 0.00 | 92 | 1016.4 |
| 20260503044004 | 10 | 290 | 0.0 | 0.0 | 0.00 | 1.09 | 0.00 | 92 | 1016.4 |
| 20260503043503 | 10 | 290 | 0.0 | 0.0 | 0.00 | 1.09 | 0.00 | 92 | 1016.4 |
| 20260503043003 | 10 | 290 | 0.0 | 0.0 | 0.00 | 1.09 | 0.00 | 92 | 1016.4 |
| 20260503042502 | 10 | 290 | 0.0 | 0.0 | 0.00 | 1.09 | 0.00 | 92 | 1016.4 |
| 20260503042002 | 10 | 290 | 0.0 | 0.0 | 0.00 | 1.09 | 0.00 | 92 | 1016.3 |
| 20260503035003 | 10 | 290 | 0.0 | 0.0 | 0.00 | 1.09 | 1.09 | 92 | 1016.4 |
| 20260503034503 | 10 | 290 | 0.0 | 0.0 | 0.00 | 1.09 | 1.09 | 92 | 1016.3 |
| 20260503034002 | 10 | 290 | 0.0 | 0.0 | 0.00 | 1.09 | 1.09 | 92 | 1016.2 |
| 20260503033502 | 10 | 290 | 0.0 | 0.0 | 0.00 | 1.09 | 1.09 | 92 | 1016.2 |
| 20260503033002 | 10 | 290 | 0.0 | 0.0 | 0.00 | 1.09 | 1.09 | 92 | 1016.2 |
| 20260503030004 | 10 | 290 | 0.0 | 1.6 | 0.00 | 1.09 | 1.09 | 92 | 1016.1 |
| 20260503025505 | 10 | 290 | 0.0 | 1.6 | 0.00 | 1.09 | 1.09 | 92 | 1015.9 |
| 20260503025003 | 10 | 11 | 0.0 | 0.0 | 0.00 | 1.09 | 1.09 | 91 | 1015.8 |
| 20260503024504 | 10 | 11 | 0.0 | 0.0 | 0.00 | 1.09 | 1.09 | 91 | 1015.6 |
| 20260503024003 | 10 | 11 | 0.0 | 0.0 | 0.00 | 1.09 | 1.09 | 91 | 1015.6 |
| 20260503023503 | 10 | 23 | 0.0 | 0.0 | 0.00 | 1.09 | 1.09 | 91 | 1015.4 |
| 20260503021006 | 10 | 23 | 0.0 | 0.0 | 0.00 | 1.09 | 1.09 | 91 | 1015.0 |
| 20260503020502 | 10 | 23 | 0.0 | 0.0 | 0.00 | 1.09 | 1.09 | 91 | 1015.0 |
| 20260503020004 | 10 | 23 | 0.0 | 0.0 | 0.00 | 1.09 | 1.09 | 91 | 1015.0 |
| 20260503015506 | 10 | 23 | 0.0 | 0.0 | 0.00 | 1.09 | 1.09 | 91 | 1014.9 |
| 20260503015005 | 10 | 23 | 0.0 | 0.0 | 0.00 | 1.09 | 1.09 | 91 | 1014.8 |
| 20260503014504 | 10 | 23 | 0.0 | 0.0 | 0.00 | 1.09 | 1.09 | 91 | 1014.7 |
| 20260503011505 | 10 | 23 | 0.0 | 0.0 | 0.00 | 1.09 | 1.09 | 89 | 1014.4 |
| 20260503011002 | 10 | 23 | 0.0 | 0.0 | 0.00 | 1.09 | 1.09 | 90 | 1014.2 |
| 20260503010502 | 10 | 23 | 0.0 | 0.0 | 0.00 | 1.09 | 1.09 | 89 | 1014.1 |
| 20260503010003 | 10 | 23 | 0.0 | 0.0 | 0.00 | 1.09 | 1.09 | 89 | 1014.0 |
| 20260503005504 | 10 | 23 | 0.0 | 0.0 | 0.00 | 1.09 | 1.09 | 88 | 1014.0 |
| 20260503005004 | 10 | 23 | 0.0 | 0.0 | 0.00 | 1.09 | 1.09 | 88 | 1013.9 |
| 20260503002004 | 12 | 23 | 0.0 | 0.0 | 0.00 | 1.09 | 1.09 | 83 | 1013.8 |
| 20260503001508 | 12 | 23 | 0.0 | 0.0 | 0.00 | 1.09 | 1.09 | 83 | 1013.7 |
| 20260503001004 | 12 | 23 | 0.0 | 0.0 | 0.00 | 1.09 | 1.09 | 82 | 1013.6 |
| 20260503000506 | 12 | 23 | 0.0 | 0.0 | 0.00 | 1.09 | 1.09 | 81 | 1013.5 |
| 20260503000013 | 13 | 23 | 0.0 | 0.0 | 0.00 | 1.09 | 1.09 | 79 | 1013.5 |
| 20260502235502 | 13 | 23 | 0.0 | 0.0 | 0.00 | 1.09 | 1.09 | 78 | 1013.4 |
| 20260502235003 | 13 | 23 | 0.0 | 0.0 | 0.00 | 1.09 | 1.09 | 77 | 1013.4 |
| 20260502234506 | 13 | 23 | 0.0 | 0.0 | 0.00 | 1.09 | 1.09 | 77 | 1013.3 |
| 20260502234004 | 13 | 23 | 0.0 | 0.0 | 0.00 | 1.09 | 1.09 | 76 | 1013.2 |
| 20260502233504 | 13 | 23 | 0.0 | 0.0 | 0.00 | 1.09 | 1.09 | 75 | 1013.2 |
| 20260502233003 | 13 | 23 | 0.0 | 0.0 | 0.00 | 1.09 | 1.09 | 74 | 1013.1 |
| 20260502232503 | 14 | 334 | 0.0 | 1.6 | 0.00 | 1.09 | 1.09 | 73 | 1013.0 |
| 20260502232204 | 14 | 331 | 0.0 | 1.6 | 0.00 | 1.09 | 1.09 | 74 | 1012.9 |
| 20260502231504 | 14 | 58 | 0.0 | 1.6 | 0.00 | 1.09 | 1.09 | 72 | 1013.0 |
| 20260502231003 | 14 | 74 | 0.0 | 1.6 | 0.00 | 1.09 | 1.09 | 72 | 1013.1 |
| 20260502230504 | 14 | 357 | 0.0 | 1.6 | 0.00 | 1.09 | 1.09 | 72 | 1013.1 |
| 20260502230005 | 14 | 1 | 0.0 | 1.6 | 0.00 | 1.09 | 1.09 | 73 | 1012.9 |
| 20260502225503 | 14 | 1 | 0.0 | 1.6 | 0.00 | 1.09 | 1.09 | 74 | 1012.9 |
| 20260502225004 | 14 | 1 | 0.0 | 1.6 | 0.00 | 1.09 | 1.09 | 73 | 1013.0 |
| 20260502224507 | 13 | 360 | 0.0 | 1.6 | 0.00 | 1.09 | 1.09 | 73 | 1013.0 |
| 20260502224003 | 13 | 11 | 0.0 | 3.2 | 0.00 | 1.09 | 1.09 | 72 | 1013.0 |
| 20260502223503 | 14 | 11 | 0.0 | 3.2 | 0.00 | 1.09 | 1.09 | 72 | 1012.9 |
| 20260502223015 | 14 | 335 | 0.0 | 1.6 | 0.00 | 1.09 | 1.09 | 73 | 1013.0 |
| 20260502222503 | 14 | 341 | 0.0 | 1.6 | 0.00 | 1.09 | 1.09 | 74 | 1013.0 |
| 20260502222005 | 14 | 345 | 0.0 | 1.6 | 0.00 | 1.09 | 1.09 | 72 | 1012.9 |
| 20260502221506 | 14 | 345 | 0.0 | 1.6 | 0.00 | 1.09 | 1.09 | 74 | 1013.0 |
| 20260502221008 | 14 | 345 | 0.0 | 1.6 | 0.00 | 1.09 | 1.09 | 73 | 1012.9 |
| 20260502220504 | 14 | 6 | 0.0 | 3.2 | 0.00 | 1.09 | 1.09 | 74 | 1012.9 |
| 20260502220007 | 14 | 8 | 1.6 | 3.2 | 0.00 | 1.09 | 1.09 | 73 | 1012.9 |
| 20260502215504 | 14 | 73 | 0.0 | 1.6 | 0.00 | 1.09 | 1.09 | 73 | 1012.9 |
| 20260502215007 | 13 | 49 | 0.0 | 4.8 | 0.00 | 1.09 | 1.09 | 73 | 1012.9 |
| 20260502214504 | 13 | 345 | 1.6 | 4.8 | 0.00 | 1.09 | 1.09 | 73 | 1012.9 |
| 20260502214007 | 14 | 336 | 0.0 | 4.8 | 0.00 | 1.09 | 1.09 | 73 | 1012.7 |
| 20260502213503 | 14 | 333 | 0.0 | 4.8 | 0.00 | 1.09 | 1.09 | 72 | 1012.6 |
| 20260502213007 | 14 | 41 | 0.0 | 3.2 | 0.00 | 1.09 | 1.09 | 72 | 1012.5 |
| 20260502212503 | 14 | 11 | 0.0 | 3.2 | 0.00 | 1.09 | 1.09 | 72 | 1012.5 |
| 20260502212005 | 14 | 304 | 0.0 | 8.0 | 0.00 | 1.09 | 1.09 | 72 | 1012.4 |
| 20260502211505 | 14 | 171 | 0.0 | 8.0 | 0.00 | 1.09 | 1.09 | 73 | 1012.4 |
| 20260502211005 | 14 | 345 | 0.0 | 6.4 | 0.00 | 1.09 | 1.09 | 72 | 1012.4 |
| 20260502210506 | 14 | 25 | 1.6 | 6.4 | 0.00 | 1.09 | 1.09 | 70 | 1012.5 |
| 20260502210006 | 14 | 72 | 1.6 | 6.4 | 0.00 | 1.09 | 1.09 | 71 | 1012.6 |
| 20260502205508 | 14 | 319 | 0.0 | 3.2 | 0.00 | 1.09 | 1.09 | 72 | 1012.7 |
| 20260502205004 | 14 | 49 | 0.0 | 3.2 | 0.00 | 1.09 | 1.09 | 71 | 1012.5 |
| 20260502204509 | 14 | 8 | 0.0 | 4.8 | 0.00 | 1.09 | 1.09 | 72 | 1012.6 |
| 20260502204004 | 14 | 334 | 3.2 | 8.0 | 0.00 | 1.09 | 1.09 | 70 | 1012.8 |
| 20260502203503 | 14 | 16 | 1.6 | 8.0 | 0.00 | 1.09 | 1.09 | 72 | 1012.8 |
| 20260502203008 | 13 | 103 | 1.6 | 6.4 | 0.00 | 1.09 | 1.09 | 73 | 1012.7 |
| 20260502202503 | 13 | 50 | 1.6 | 6.4 | 0.00 | 1.09 | 1.09 | 74 | 1012.7 |
| 20260502202004 | 13 | 63 | 1.6 | 4.8 | 0.00 | 1.09 | 1.09 | 74 | 1012.7 |
| 20260502201513 | 13 | 141 | 0.0 | 4.8 | 0.00 | 1.09 | 1.09 | 76 | 1012.6 |
| 20260502201004 | 13 | 75 | 1.6 | 4.8 | 0.00 | 1.09 | 1.09 | 76 | 1012.7 |
| 20260502200504 | 13 | 343 | 0.0 | 6.4 | 0.00 | 1.09 | 1.09 | 76 | 1012.8 |
| 20260502200010 | 13 | 330 | 1.6 | 6.4 | 0.00 | 1.09 | 1.09 | 77 | 1013.1 |
| 20260502195503 | 13 | 345 | 0.0 | 3.2 | 0.00 | 1.09 | 1.09 | 77 | 1013.2 |
| 20260502195002 | 13 | 347 | 1.6 | 3.2 | 0.00 | 1.09 | 1.09 | 78 | 1013.3 |
| 20260502194510 | 12 | 23 | 1.6 | 3.2 | 0.00 | 1.09 | 1.09 | 78 | 1013.3 |
| 20260502194004 | 12 | 72 | 0.0 | 3.2 | 0.00 | 1.09 | 1.09 | 79 | 1013.2 |
| 20260502193504 | 12 | 352 | 0.0 | 6.4 | 0.00 | 1.09 | 1.09 | 79 | 1013.2 |
| 20260502193006 | 12 | 19 | 1.6 | 6.4 | 0.00 | 1.09 | 1.09 | 77 | 1013.2 |
| 20260502192507 | 12 | 345 | 1.6 | 4.8 | 0.00 | 1.09 | 1.09 | 78 | 1013.2 |
| 20260502191507 | 12 | 327 | 1.6 | 8.0 | 0.00 | 1.09 | 1.09 | 78 | 1013.3 |
| 20260502191003 | 12 | 18 | 1.6 | 8.0 | 0.00 | 1.09 | 1.09 | 78 | 1013.3 |
| 20260502190503 | 13 | 342 | 1.6 | 4.8 | 0.00 | 1.09 | 1.09 | 80 | 1013.3 |
| 20260502190010 | 13 | 32 | 1.6 | 4.8 | 0.00 | 1.09 | 1.09 | 79 | 1013.4 |
| 20260502185504 | 13 | 35 | 1.6 | 4.8 | 0.00 | 1.09 | 1.09 | 80 | 1013.3 |